Regional Weather Roundup
Issued by NWS Sioux Falls, SD

Home | Current Version | Previous Version | Text Only | Print | Product List | Glossary Off
Versions: 1 2 3 4 5 6 7 8 9 10 11 12 13 14 15 16 17 18 19 20 21 22 23 24 25 26 27 28 29 30 31 32 33 34 35 36 37 38 39 40 41 42 43 44 45 46 47 48 49 50

000
ASUS43 KFSD 062310
RWRFSD

WEATHER ROUNDUP FOR SE SOUTH DAKOTA/SW MINNESOTA/NW IOWA
NATIONAL WEATHER SERVICE SIOUX FALLS SD
600 PM CDT MON JUL 06 2015

NOTE: "FAIR" INDICATES FEW OR NO CLOUDS BELOW 12,000 FEET WITH NO
SIGNIFICANT WEATHER AND OR OBSTRUCTIONS TO VISIBILITY.


SDZ038>040-050-052>070-070000-
SOUTHEAST SOUTH DAKOTA

CITY           SKY/WX    TMP DP  RH WIND       PRES   REMARKS
BROOKINGS      MOSUNNY   70  54  56 N21       30.08S
CHAMBERLAIN    MOSUNNY   74  53  47 N10G16    30.10F
HURON          SUNNY     72  54  53 N13G23    30.08F HAZE
MADISON        FAIR      68  55  64 N21       30.07S
MITCHELL       SUNNY     73  55  53 N20G26    30.08S HAZE
SIOUX FALLS    PTSUNNY   73  58  59 N16G28    30.03S SMOKE
WINNER         FAIR      76  52  43 N20G26    30.12F
YANKTON        MOSUNNY   73  57  56 N17       30.02R
$$

MNZ071-072-080-081-089-090-097-098-070000-
SOUTHWEST MINNESOTA

CITY           SKY/WX    TMP DP  RH WIND       PRES   REMARKS
FAIRMONT       CLOUDY    72  57  60 N14       29.96S
JACKSON          N/A     70  59  68 VRB16G22  30.00R HAZE
LUVERNE        PTSUNNY   73  55  53 VRB9G21   30.03S
MARSHALL       SUNNY     70  52  52 N22G28    30.03S
PIPESTONE      MOSUNNY   70  55  60 N16G25    30.05S
REDWOOD FALLS  SUNNY     72  53  51 NW16G22   30.00R HAZE
TRACY          SUNNY     70  55  59 N21G29    30.04R
WINDOM         MOSUNNY   72  55  56 N22       30.00S HAZE
WORTHINGTON    CLOUDY    70  55  60 N17G28    30.02S
$$

IAZ001>003-012>014-020>022-031-032-NEZ013-014-SDZ071-070000-
NORTHWEST IOWA

CITY           SKY/WX    TMP DP  RH WIND       PRES   REMARKS
CHEROKEE         N/A     72  63  72 N10G22    29.97S HAZE
DENISON        CLOUDY    72  59  64 N18G25    29.95R HAZE
ESTHERVILLE    CLOUDY    71  59  65 N17       29.97S HAZE
LE MARS        SUNNY     73  61  64 N17       30.00R HAZE
ORANGE CITY      N/A     70  57  64 N16G23    30.01R HAZE
SHELDON        SUNNY     72  63  73 N17G29    30.00R HAZE
SIOUX CITY     CLOUDY    75  58  55 N20       29.99R HAZE
SPENCER        CLOUDY    74  59  59 N17       29.98S HAZE
STORM LAKE     SUNNY     72  61  68 N20G26    29.98R HAZE
$$

ABBREVIATIONS USED IN REMARKS
   TC - TEMPERATURE IN CELSIUS
  WCI - WIND CHILL INDEX
   HX - HEAT INDEX
  VSB - VISIBILITY



USA.gov is the U.S. government's official web portal to all federal, state and local government web resources and services.